Flag for Uruguay Weather past 2 weeks in Canelones, Uruguay

Now
48 °F

Light fog.


Feels Like: 47 °F
Forecast: 44 / 68 °F
Wind: 3 mph from Northeast

Location: Carrasco

Current Time: Aug 30, 2014 at 7:11:32 AM

Latest Report: Aug 30, 2014 at 6:15 AM


Visibility: 5 mi

Pressure: 30.07 "Hg

Humidity: 94%

Dew point: 46 °F

Location of CanelonesLocation

Historic Weather in Canelones — Graph

°F

Canelones temperature yesterday

Maximum temperature yesterday: 63 °F (at 2:00 PM)
Minimum temperature yesterday: 39 °F (at 7:00 AM)
Average temperature yesterday: 50 °F

Past Weeks' High & Low Weather Summary

 TemperatureHumidityPressure
High84 °F (Aug 21, 3:00 PM)100% (Aug 16, 7:00 AM)30.33 "Hg (Aug 16, 7:00 AM)
Low37 °F (Aug 15, 8:00 AM)24% (Aug 15, 3:00 PM)29.39 "Hg (Aug 25, 10:00 PM)
Average57 °F78%29.98 "Hg
* Reported Aug 15 6:00 AM — Aug 30 6:00 AM, Canelones, Weather by CustomWeather, © 2014

Note: Actual official high and low records may vary slightly from our data, if they occured in-between our weather recording intervals... More about our weather records

Advertising

Canelones weather history for previous 24 hours

 ConditionsComfort  
Time TempWeatherWind HumidityBarometerVisibility
6:00 AM
Aug 30
48 °FClear.3 mph94%30.07 "HgN/A
5:00 AM43 °FLight fog.3 mph100%30.04 "Hg5 mi
4:00 AM46 °FClear.No wind93%30.07 "Hg10 mi
3:00 AM46 °FClear.No wind100%30.07 "Hg10 mi
2:00 AM48 °FClear.5 mph100%30.09 "Hg10 mi
1:00 AM48 °FClear.5 mph100%30.09 "Hg10 mi
12:00 AM50 °FClear.3 mph94%30.09 "Hg10 mi
11:00 PM
Aug 29
50 °FClear.6 mph100%30.09 "Hg10 mi
10:00 PM52 °FClear.7 mph94%30.09 "Hg10 mi
9:00 PM54 °FClear.10 mph88%30.09 "Hg10 mi
8:00 PM54 °FClear.10 mph82%30.09 "Hg10 mi
7:00 PM54 °FClear.10 mph82%30.09 "Hg10 mi
6:00 PM55 °FClear.12 mph77%30.09 "Hg10 mi
4:00 PM59 °FSunny.10 mph68%30.09 "Hg10 mi
3:00 PM61 °FSunny.10 mph59%30.09 "Hg10 mi
2:00 PM63 °FSunny.6 mph45%30.12 "Hg10 mi
1:00 PM61 °FSunny.6 mph48%30.15 "Hg10 mi
12:00 PM59 °FSunny.7 mph55%30.15 "Hg10 mi
11:00 AM55 °FSunny.6 mph67%30.18 "Hg10 mi
10:00 AM52 °FSunny.8 mph77%30.18 "Hg10 mi
9:00 AM46 °FSunny.8 mph93%30.21 "Hg10 mi
8:00 AM43 °FSunny.7 mph93%30.18 "Hg10 mi
7:00 AM39 °FSunny.No wind93%30.18 "Hg10 mi
Weather by CustomWeather, © 2014

See weather overviewHow to use our weather pages